Location: Unspecified
(0.0000°N, 0.0000°E)
Time: 11:59:48
(UTC+00:00)

SRMSAT - Pass Details

Date: 08 December 2017
Orbit: 849 x 866 km, 20.0° (Epoch: 24 June)

Event Time Altitude Azimuth Distance (km) Brightness Sun altitude
Rises 19:36:44 0° 264° (W) 3,394 ? -24.0°
Reaches altitude 10° 19:39:46 10° 250° (WSW) 2,460 ? -24.7°
Maximum altitude 19:44:28 24° 197° (SSW) 1,666 ? -25.7°
Enters shadow 19:48:59 11° 145° (SE) 2,404 ? -26.7°
